Weather History for Los Angeles Downtown, CA

Change the Weather History Date:

Sunday, January 27, 2013

  Actual Average Record
Temperature  
Mean Temperature 57 °F 58 °F  
Max Temperature 62 °F 68 °F 87 °F (1986)
Min Temperature 51 °F 48 °F 32 °F (1898)
Degree Days  
Heating Degree Days 8 7  
Month to date heating degree days 221 195  
Since 1 July heating degree days 532 560  
Cooling Degree Days 0 0  
Month to date cooling degree days 2 0  
Year to date cooling degree days 2 0  
Growing Degree Days 6 (Base 50)    
Moisture  
Dew Point 49 °F    
Average Humidity 71    
Maximum Humidity 100    
Minimum Humidity 41    
Precipitation  
Precipitation 0.03 in 0.09 in 2.28 in (1916)
Month to date precipitation 1.18 2.70  
Year to date precipitation 1.18 2.70  
Since 1 July precipitation 4.40 7.02  
Sea Level Pressure  
Sea Level Pressure 29.99 in    
Wind  
Wind Speed 2 mph (ESE)    
Max Wind Speed 8 mph    
Max Gust Speed 15 mph    
Visibility 7 miles    
Events Rain    
T = Trace of Precipitation, MM = Missing Value Source: NWS Daily Summary

Daily Weather History Graph

Daily Weather History Graph

Search for Another Location

Airport:

Trip Planner

Search our weather history database for the weather conditions in past years. The results will help you decide how hot, cold, wet, or windy it might be!

Date:

Astronomy

Jan. 27, 2013 Rise Set
Actual Time 6:53 AM PST 5:19 PM PST
Civil Twilight 6:26 AM PST 5:45 PM PST
Nautical Twilight 5:56 AM PST 6:15 PM PST
Astronomical Twilight 5:27 AM PST 6:45 PM PST
Moon 6:12 PM PST (1/27) 6:52 AM PST (1/27)
Length of Visible Light 11h 18m
Length of Day
10h 25m
Full, 100% of the Moon is Illuminated
Jan 27
Full
Feb 3
Last Quarter
Feb 9
New
Feb 17
First Quarter
Feb 25
Full

Hourly Weather History & Observations

Time (PST) Temp. Dew Point Humidity Pressure Visibility Wind Dir Wind Speed Gust Speed Precip Events Conditions
12:12 AM 55.4 °F 53.6 °F 94% 29.99 in 2.5 mi SE 3.5 mph - N/A   Overcast
12:47 AM 57.0 °F 55.0 °F 93% 29.99 in 2.5 mi Calm Calm - N/A   Overcast
1:00 AM 55.4 °F 55.4 °F 100% 29.99 in 1.8 mi Calm Calm - N/A   Overcast
1:09 AM 55.4 °F 55.4 °F 100% 29.99 in 1.2 mi Calm Calm - N/A   Overcast
1:47 AM 55.9 °F 55.0 °F 97% 29.99 in 1.2 mi Calm Calm - N/A   Overcast
2:27 AM 55.4 °F 55.4 °F 100% 29.99 in 2.0 mi Calm Calm - 0.00 in   Overcast
2:47 AM 55.9 °F 54.0 °F 93% 29.98 in 2.5 mi Calm Calm - 0.00 in   Overcast
3:47 AM 55.9 °F 55.0 °F 97% 29.98 in 2.0 mi Calm Calm - 0.01 in Rain Light Rain
3:52 AM 55.4 °F 55.4 °F 100% 29.98 in 1.8 mi Calm Calm - 0.01 in Rain Light Rain
4:01 AM 55.4 °F 55.4 °F 100% 29.97 in 2.5 mi Variable 3.5 mph - 0.01 in Rain Light Rain
4:05 AM 55.4 °F 53.6 °F 94% 29.97 in 4.0 mi SE 4.6 mph - 0.01 in Rain Light Rain
4:28 AM 55.4 °F 53.6 °F 94% 29.97 in 4.0 mi Calm Calm - 0.01 in   Overcast
4:44 AM 55.4 °F 53.6 °F 94% 29.97 in 7.0 mi Calm Calm - 0.01 in   Overcast
4:47 AM 55.9 °F 54.0 °F 93% 29.97 in 8.0 mi SE 3.5 mph - 0.01 in   Overcast
5:21 AM 55.4 °F 53.6 °F 94% 29.97 in 10.0 mi ESE 3.5 mph - N/A   Overcast
5:35 AM 55.4 °F 53.6 °F 94% 29.97 in 10.0 mi Calm Calm - N/A   Overcast
5:47 AM 55.0 °F 53.1 °F 93% 29.97 in 10.0 mi Calm Calm - N/A   Overcast
6:11 AM 55.4 °F 53.6 °F 94% 29.98 in 3.0 mi Calm Calm - N/A   Overcast
6:30 AM 53.6 °F 51.8 °F 94% 29.98 in 3.0 mi Calm Calm - 0.00 in Rain Light Rain
6:33 AM 53.6 °F 51.8 °F 94% 29.98 in 2.5 mi Calm Calm - 0.00 in Rain Light Rain
6:47 AM 54.0 °F 52.0 °F 93% 29.99 in 2.0 mi Calm Calm - 0.01 in   Overcast
6:56 AM 53.6 °F 51.8 °F 94% 29.99 in 2.0 mi Calm Calm - N/A   Overcast
7:04 AM 53.6 °F 51.8 °F 94% 29.99 in 2.5 mi Calm Calm - 0.00 in Rain Light Rain
7:08 AM 53.6 °F 51.8 °F 94% 29.99 in 3.0 mi Calm Calm - 0.00 in   Overcast
7:47 AM 53.1 °F 51.1 °F 93% 29.99 in 8.0 mi Calm Calm - 0.00 in   Overcast
7:52 AM 53.6 °F 51.8 °F 94% 29.99 in 9.0 mi Calm Calm - N/A   Overcast
8:39 AM 53.6 °F 51.8 °F 94% 30.00 in 10.0 mi Calm Calm - N/A   Overcast
8:47 AM 54.0 °F 51.1 °F 90% 30.00 in 10.0 mi Calm Calm - N/A   Overcast
9:11 AM 55.4 °F 51.8 °F 88% 30.01 in 10.0 mi Calm Calm - N/A   Overcast
9:27 AM 55.4 °F 51.8 °F 88% 30.01 in 10.0 mi Calm Calm - N/A   Overcast
9:47 AM 55.9 °F 50.0 °F 80% 30.02 in 10.0 mi Calm Calm - N/A   Overcast
10:41 AM 57.2 °F 50.0 °F 77% 30.02 in 10.0 mi Calm Calm - N/A   Overcast
10:47 AM 57.0 °F 50.0 °F 77% 30.02 in 10.0 mi WSW 3.5 mph - N/A   Overcast
11:10 AM 57.2 °F 48.2 °F 72% 30.02 in 10.0 mi Calm Calm - N/A   Overcast
11:30 AM 60.8 °F 48.2 °F 63% 30.02 in 10.0 mi Calm Calm - N/A   Overcast
11:47 AM 59.0 °F 48.0 °F 67% 30.01 in 10.0 mi Calm Calm - N/A   Mostly Cloudy
12:47 PM 59.0 °F 46.0 °F 62% 29.98 in 10.0 mi Calm Calm - N/A   Overcast
1:47 PM 60.1 °F 46.0 °F 60% 29.96 in 10.0 mi Variable 4.6 mph - N/A   Partly Cloudy
2:47 PM 60.1 °F 46.0 °F 60% 29.96 in 10.0 mi Variable 3.5 mph - N/A   Partly Cloudy
3:47 PM 59.0 °F 42.1 °F 53% 29.96 in 10.0 mi Variable 3.5 mph - N/A   Clear
4:47 PM 55.9 °F 39.9 °F 55% 29.96 in 10.0 mi Variable 5.8 mph - N/A   Overcast
5:47 PM 54.0 °F 35.1 °F 49% 29.97 in 10.0 mi Variable 3.5 mph - N/A   Scattered Clouds
6:47 PM 54.0 °F 36.0 °F 51% 29.98 in 10.0 mi NNE 3.5 mph - N/A   Overcast
7:47 PM 53.1 °F 39.0 °F 59% 29.99 in 10.0 mi NE 4.6 mph - 0.00 in Rain Light Rain
8:47 PM 52.0 °F 37.9 °F 59% 29.99 in 10.0 mi Calm Calm - 0.00 in   Partly Cloudy
9:47 PM 52.0 °F 30.0 °F 43% 30.00 in 10.0 mi Variable 3.5 mph - N/A   Mostly Cloudy
10:47 PM 52.0 °F 28.9 °F 41% 30.01 in 10.0 mi Variable 5.8 mph - N/A   Clear
11:47 PM 51.1 °F 27.0 °F 39% 30.03 in 10.0 mi NW 5.8 mph - N/A   Clear